Stations météo

réclame
Mon MeteoGroup
Lulea/Kallax, Suède (2186): Température de l'air & dewpoint: 01.12.2019 18:00:00 - 07.12.2019 18:00:00 (CET)Lulea/Kallax, Suède (2186): Vitesse du vent & gusts: 01.12.2019 18:00:00 - 07.12.2019 18:00:00 (CET)Lulea/Kallax, Suède (2186): Direction du vent: 01.12.2019 18:00:00 - 07.12.2019 18:00:00 (CET)Lulea/Kallax, Suède (2186): reduced air pressure: 01.12.2019 18:00:00 - 07.12.2019 18:00:00 (CET)Lulea/Kallax, Suède (2186): visibility: 01.12.2019 18:00:00 - 07.12.2019 18:00:00 (CET)Lulea/Kallax, Suède (2186): Quantités de précipitations: 01.12.2019 18:00:00 - 07.12.2019 18:00:00 (CET)
Date & Time tt [°C] td [°C] ff [km/h] ff [knt] fx [km/h] fx [knt] dd ppp [hPa] vv [km] rr [mm]
07.12.2019 18:00:00 -7,2 -7,7 0 0 7 4 N 979,9 10 0,0
07.12.2019 17:00:00 -6,8 -7,3 4 2 7 4 SSW 980,0 10 0,0
07.12.2019 16:00:00 -6,8 -7,5 2 1 11 6 - 980,5 10 0,0
07.12.2019 15:00:00 -4,8 -5,5 4 2 11 6 - 980,7 10 0,0
07.12.2019 14:00:00 -5,7 -6,2 5 3 7 4 SSE 980,8 10 0,0
07.12.2019 13:00:00 -5,5 -6,3 2 1 7 4 - 980,8 10 0,0
07.12.2019 12:00:00 -4,4 -4,9 2 1 11 6 - 981,0 10 0,0
07.12.2019 11:00:00 -5,5 -5,9 4 2 11 6 SW 981,6 10 0,0
07.12.2019 10:00:00 -5,4 -5,9 4 2 7 4 - 981,8 10 0,0
07.12.2019 09:00:00 -4,7 -5,7 4 2 14 8 - 981,8 10 0,0
07.12.2019 08:00:00 -4,2 -4,9 8 4 14 8 S 981,6 10 0,0
07.12.2019 07:00:00 -4,7 -5,4 8 4 11 6 S 981,5 10 0,0
07.12.2019 06:00:00 -6,0 -6,4 7 4 11 6 SSE 981,1 45 0,0
07.12.2019 05:00:00 -4,0 -4,7 4 2 7 4 SSW 981,1 10 0,0
07.12.2019 04:00:00 -2,8 -4,1 5 3 14 8 S 980,9 10 0,0
07.12.2019 03:00:00 -2,1 -3,4 9 5 14 8 SSW 981,0 10 0,0
07.12.2019 02:00:00 -2,5 -3,6 11 6 18 10 SSW 980,8 10 0,0
07.12.2019 01:00:00 -2,9 -4,0 9 5 14 8 SSW 980,8 10 0,0
07.12.2019 00:00:00 -3,4 -4,4 8 4 11 6 SSW 980,7 10 0,0
06.12.2019 23:00:00 -3,6 -4,6 5 3 11 6 SW 980,6 10 0,0
06.12.2019 22:00:00 -3,4 -4,4 8 4 14 8 SSW 980,6 10 0,0
06.12.2019 21:00:00 -3,9 -4,7 9 5 14 8 SSW 980,4 10 0,0
06.12.2019 20:00:00 -4,5 -5,5 8 4 18 10 SW 980,3 10 0,0
06.12.2019 19:00:00 -4,3 -5,3 8 4 11 6 SSW 979,9 10 0,0
06.12.2019 18:00:00 -4,7 -5,8 5 3 14 8 SW 980,0 10 0,0
06.12.2019 17:00:00 -6,7 -7,6 2 1 11 6 - 979,8 10 0,0
06.12.2019 16:00:00 -6,6 -7,1 0 0 7 4 N 979,4 10 0,0
06.12.2019 15:00:00 -6,1 -6,8 2 1 7 4 - 979,4 10 0,0
06.12.2019 14:00:00 -3,8 -5,1 4 2 7 4 - 979,7 10 0,0
06.12.2019 13:00:00 -3,9 -5,3 4 2 7 4 - 979,4 10 0,0
06.12.2019 12:00:00 -2,9 -4,5 4 2 14 8 S 979,5 10 0,0
06.12.2019 11:00:00 -2,7 -4,3 5 3 14 8 SSW 979,4 10 0,0
06.12.2019 10:00:00 -2,7 -4,3 8 4 14 8 SW 979,1 10 0,0
06.12.2019 09:00:00 -2,6 -4,2 5 3 14 8 WSW 978,8 10 0,0
06.12.2019 08:00:00 -3,8 -4,8 4 2 11 6 - 978,6 10 0,0
06.12.2019 07:00:00 -1,9 -4,2 4 2 14 8 - 978,6 10 0,0
06.12.2019 06:00:00 -1,8 -4,5 4 2 18 10 - 978,2 10 0,0
06.12.2019 05:00:00 -1,0 -4,0 13 7 25 14 WSW 977,8 10 0,0
06.12.2019 04:00:00 -0,5 -3,9 15 8 25 14 W 977,3 10 0,0
06.12.2019 03:00:00 -0,1 -3,6 15 8 25 14 W 977,3 10 0,0
06.12.2019 02:00:00 0,2 -3,5 18 10 29 16 W 977,3 10 0,0
06.12.2019 01:00:00 0,5 -3,2 11 6 22 12 WSW 977,0 10 0,0
06.12.2019 00:00:00 0,4 -2,8 15 8 22 12 WSW 977,3 10 0,0
05.12.2019 23:00:00 1,1 -2,1 13 7 22 12 WSW 976,8 10 0,0
05.12.2019 22:00:00 0,8 -1,3 9 5 22 12 SW 976,5 10 0,0
05.12.2019 21:00:00 1,1 -1,1 11 6 22 12 SW 976,7 10 0,0
05.12.2019 20:00:00 0,7 -0,9 13 7 22 12 S 976,4 10 0,0
05.12.2019 19:00:00 0,8 -0,8 18 10 25 14 S 976,8 10 0,0
05.12.2019 18:00:00 0,9 -0,6 21 11 32 18 S 977,3 10 0,0
05.12.2019 17:00:00 1,0 -0,6 18 10 29 16 S 977,5 10 0,0
05.12.2019 16:00:00 1,2 -0,3 21 11 40 21 S 978,7 10 0,0
05.12.2019 15:00:00 1,2 -0,4 18 10 25 14 S 979,1 10 0,0
05.12.2019 14:00:00 1,1 -0,5 13 7 18 10 S 980,0 10 0,0
05.12.2019 13:00:00 1,8 -1,1 13 7 18 10 S 981,0 10 0,0
05.12.2019 12:00:00 2,7 -0,9 5 3 22 12 SW 982,1 10 0,0
05.12.2019 11:00:00 3,0 -0,6 11 6 25 14 SSW 982,8 10 0,0
05.12.2019 10:00:00 2,6 -0,3 9 5 18 10 SW 983,6 10 0,0
05.12.2019 09:00:00 2,8 0,2 8 4 18 10 SSW 984,1 10 0,0
05.12.2019 08:00:00 1,8 0,6 9 5 14 8 SSW 984,3 10 0,0
05.12.2019 07:00:00 3,5 1,4 8 4 14 8 - 984,6 10 0,0
05.12.2019 06:00:00 3,0 1,5 9 5 14 8 SW 984,6 10 0,0
05.12.2019 05:00:00 3,0 1,5 8 4 14 8 SSW 984,9 10 0,0
05.12.2019 04:00:00 4,5 2,4 9 5 18 10 SSW 984,7 10 0,0
05.12.2019 03:00:00 4,1 2,3 13 7 18 10 SSW 985,4 10 0,0
05.12.2019 02:00:00 4,4 2,4 11 6 18 10 S 986,1 10 0,0
05.12.2019 01:00:00 4,6 2,5 9 5 18 10 SSW 987,6 10 0,0
05.12.2019 00:00:00 5,1 2,6 13 7 22 12 SW 988,3 10 0,1
04.12.2019 23:00:00 4,8 2,0 8 4 18 10 SSW 989,4 10 0,0
04.12.2019 22:00:00 4,9 1,7 11 6 18 10 SSW 989,4 10 0,0
04.12.2019 21:00:00 5,5 1,8 9 5 22 12 WSW 990,3 10 0,0
04.12.2019 20:00:00 6,0 1,9 11 6 22 12 WSW 991,6 10 0,0
04.12.2019 19:00:00 5,8 2,3 13 7 22 12 WSW 992,2 10 0,0
04.12.2019 18:00:00 6,4 2,3 9 5 36 19 W 992,3 10 0,0
04.12.2019 17:00:00 6,7 2,4 24 13 40 21 W 992,0 10 0,0
04.12.2019 16:00:00 6,1 2,4 16 9 29 16 W 992,4 10 0,0
04.12.2019 15:00:00 6,3 2,2 16 9 36 19 W 992,0 10 0,0
04.12.2019 14:00:00 6,1 2,2 21 11 36 19 W 991,4 10 0,0
04.12.2019 13:00:00 6,4 2,3 24 13 40 21 W 991,2 10 0,0
04.12.2019 12:00:00 6,5 2,5 16 9 25 14 W 991,0 10 0,0
04.12.2019 11:00:00 6,0 2,6 13 7 29 16 W 991,0 10 0,0
04.12.2019 10:00:00 5,5 3,0 21 11 32 18 W 990,6 10 0,0
04.12.2019 09:00:00 5,4 3,2 21 11 32 18 W 990,0 10 0,0
04.12.2019 08:00:00 5,4 3,6 16 9 22 12 W 989,3 10 0,0
04.12.2019 07:00:00 3,1 2,5 9 5 18 10 W 989,1 10 0,0
04.12.2019 06:00:00 3,7 2,8 8 4 14 8 W 988,8 10 0,0
04.12.2019 05:00:00 3,5 2,9 11 6 18 10 W 988,3 10 0,2
04.12.2019 04:00:00 2,0 1,7 8 4 14 8 WSW 988,5 10 0,6
04.12.2019 03:00:00 0,8 0,5 2 1 7 4 - 988,8 9 1,0
04.12.2019 02:00:00 0,2 -0,1 5 3 7 4 SSE 989,0 10 1,0
04.12.2019 01:00:00 0,1 -0,3 5 3 18 10 SSE 989,7 9 0,9
04.12.2019 00:00:00 -0,3 -0,9 8 4 11 6 SSW 989,8 10 0,0
03.12.2019 23:00:00 -0,7 -1,1 9 5 14 8 SSW 990,5 10 0,0
03.12.2019 22:00:00 -0,8 -1,2 4 2 11 6 SSW 991,2 10 0,0
03.12.2019 21:00:00 -0,8 -1,2 8 4 14 8 SSW 991,9 10 0,0
03.12.2019 20:00:00 -1,0 -1,6 5 3 14 8 S 992,3 10 0,0
03.12.2019 19:00:00 -1,3 -1,7 8 4 14 8 SSW 992,8 6 0,2
03.12.2019 18:00:00 -1,5 -1,9 9 5 14 8 SSW 993,6 5 0,4
03.12.2019 17:00:00 -1,9 -2,6 8 4 18 10 SW 994,2 6 0,1
03.12.2019 16:00:00 -2,0 -3,3 11 6 22 12 SSW 994,8 8 0,0
03.12.2019 15:00:00 -2,2 -4,1 13 7 18 10 S 995,9 10 0,0
03.12.2019 14:00:00 -3,2 -5,5 9 5 14 8 S 997,2 10 0,0
03.12.2019 13:00:00 -3,5 -6,3 8 4 14 8 S 998,1 10 0,0
03.12.2019 12:00:00 -3,6 -6,5 8 4 11 6 SSW 999,2 10 0,0
03.12.2019 11:00:00 -3,9 -7,3 4 2 14 8 - 1000,1 10 0,0
03.12.2019 10:00:00 -4,1 -7,4 5 3 14 8 SW 1000,8 10 0,0
03.12.2019 09:00:00 -3,1 -7,1 9 5 14 8 WSW 1001,2 10 0,0
03.12.2019 08:00:00 -2,7 -6,9 4 2 18 10 - 1001,7 10 0,0
03.12.2019 07:00:00 -1,7 -6,6 11 6 18 10 W 1002,1 10 0,0
03.12.2019 06:00:00 -1,9 -6,6 11 6 18 10 WNW 1002,4 10 0,0
03.12.2019 05:00:00 -1,5 -6,6 15 8 22 12 WNW 1002,9 10 0,0
03.12.2019 04:00:00 -1,6 -6,7 16 9 22 12 WNW 1003,1 10 0,0
03.12.2019 03:00:00 -1,2 -6,7 15 8 25 14 WNW 1003,1 10 0,0
03.12.2019 02:00:00 -0,9 -6,7 22 12 29 16 WNW 1003,2 10 0,0
03.12.2019 01:00:00 -0,8 -6,6 21 11 32 18 WNW 1002,5 10 0,0
03.12.2019 00:00:00 -1,0 -6,5 26 14 32 18 NW 1002,0 10 0,0
02.12.2019 23:00:00 -1,1 -6,8 24 13 32 18 WNW 1001,7 10 0,0
02.12.2019 22:00:00 -1,3 -7,0 22 12 29 16 WNW 1000,9 10 0,0
02.12.2019 21:00:00 -1,0 -7,2 21 11 32 18 WNW 1000,7 10 0,0
02.12.2019 20:00:00 -0,5 -7,1 26 14 40 21 WNW 1000,1 10 0,0
02.12.2019 19:00:00 -0,4 -7,0 28 15 40 21 WNW 999,7 10 0,0
02.12.2019 18:00:00 -0,1 -6,9 28 15 36 19 WNW 998,8 10 0,0
02.12.2019 17:00:00 -0,2 -6,8 28 15 40 21 WNW 997,9 10 0,0
02.12.2019 16:00:00 -0,1 -6,9 28 15 47 25 NW 997,1 10 0,0
02.12.2019 15:00:00 -0,1 -7,2 37 20 54 29 WNW 996,4 10 0,0
02.12.2019 14:00:00 -0,3 -7,3 29 16 40 21 WNW 995,9 10 0,0
02.12.2019 13:00:00 -0,5 -7,5 29 16 40 21 WNW 995,3 10 0,0
02.12.2019 12:00:00 -0,9 -7,9 31 17 40 21 WNW 995,1 10 0,0
02.12.2019 11:00:00 -0,9 -7,9 28 15 40 21 WNW 994,8 10 0,0
02.12.2019 10:00:00 -1,6 -7,9 28 15 40 21 WNW 994,7 10 0,0
02.12.2019 09:00:00 -1,7 -8,0 26 14 36 19 WNW 994,1 10 0,0
02.12.2019 08:00:00 -1,7 -8,0 22 12 32 18 WNW 993,6 10 0,0
02.12.2019 07:00:00 -1,8 -8,1 18 10 25 14 WNW 993,3 10 0,0
02.12.2019 06:00:00 -1,6 -7,7 21 11 32 18 WNW 992,9 10 0,0
02.12.2019 05:00:00 -1,3 -7,6 26 14 40 21 NW 992,4 10 0,0
02.12.2019 04:00:00 -0,9 -7,3 29 16 47 25 WNW 991,9 10 0,0
02.12.2019 03:00:00 -0,6 -7,0 29 16 43 23 WNW 991,5 10 0,0
02.12.2019 02:00:00 -0,5 -6,9 29 16 43 23 WNW 990,9 10 0,0
02.12.2019 01:00:00 -0,4 -7,2 31 17 47 25 WNW 990,7 10 0,0
02.12.2019 00:00:00 -0,4 -7,2 31 17 47 25 WNW 990,3 10 0,0
01.12.2019 23:00:00 -0,8 -7,2 31 17 47 25 WNW 990,1 10 0,0
01.12.2019 22:00:00 -0,6 -7,0 29 16 47 25 WNW 990,0 10 0,0
01.12.2019 21:00:00 -0,7 -6,5 34 18 50 27 WNW 989,9 10 0,0
01.12.2019 20:00:00 -0,5 -6,5 34 18 50 27 WNW 989,7 10 0,0
01.12.2019 19:00:00 -0,5 -6,5 37 20 54 29 WNW 989,8 10 0,0
01.12.2019 18:00:00 -0,8 -6,2 31 17 43 23 W 989,9 10 0,0

tt = Température de l'air
td = dewpoint
ff = Vitesse du vent
fx = gusts
dd = Direction du vent
ppp = reduced air pressure
vv = visibility
rr = Quantités de précipitations

stations d'obs. à proximité